owner,sensor,date,latitude,longitude,vertical_datum,wind_speed,wind_to_direction,wind_speed_of_gust,qcFlag 
WAVCIS,ioos:station:WAVCIS:CSI09:1,2016-12-01T00:00:00Z,29.1015,-89.9782,0.0,11.69,347.0,,'11111222,11111222,99999999' 
WAVCIS,ioos:station:WAVCIS:CSI09:1,2016-12-01T01:00:00Z,29.1015,-89.9782,0.0,10.65,353.0,,'11111222,11111222,99999999' 
WAVCIS,ioos:station:WAVCIS:CSI09:1,2016-12-01T02:00:00Z,29.1015,-89.9782,0.0,9.67,0.0,,'11111222,11111222,99999999' 
WAVCIS,ioos:station:WAVCIS:CSI09:1,2016-12-01T03:00:00Z,29.1015,-89.9782,0.0,10.68,356.0,,'11111222,11111222,99999999' 
WAVCIS,ioos:station:WAVCIS:CSI09:1,2016-12-01T04:00:00Z,29.1015,-89.9782,0.0,9.72,2.0,,'11111222,11111222,99999999' 
WAVCIS,ioos:station:WAVCIS:CSI09:1,2016-12-01T05:00:00Z,29.1015,-89.9782,0.0,8.02,359.0,,'11111222,11111222,99999999' 
WAVCIS,ioos:station:WAVCIS:CSI09:1,2016-12-01T06:00:00Z,29.1015,-89.9782,0.0,9.08,354.0,,'11111222,11111222,99999999' 
WAVCIS,ioos:station:WAVCIS:CSI09:1,2016-12-01T07:00:00Z,29.1015,-89.9782,0.0,10.16,351.0,,'11111222,11111222,99999999' 
WAVCIS,ioos:station:WAVCIS:CSI09:1,2016-12-01T08:00:00Z,29.1015,-89.9782,0.0,10.28,359.0,,'11111222,11111222,99999999' 
WAVCIS,ioos:station:WAVCIS:CSI09:1,2016-12-01T09:00:00Z,29.1015,-89.9782,0.0,11.52,359.0,,'11111222,11111222,99999999' 
WAVCIS,ioos:station:WAVCIS:CSI09:1,2016-12-01T10:00:00Z,29.1015,-89.9782,0.0,12.41,5.0,,'11111222,11111222,99999999' 
WAVCIS,ioos:station:WAVCIS:CSI09:1,2016-12-01T11:00:00Z,29.1015,-89.9782,0.0,13.22,10.0,,'11111222,11111222,99999999' 
WAVCIS,ioos:station:WAVCIS:CSI09:1,2016-12-01T12:00:00Z,29.1015,-89.9782,0.0,12.61,17.0,,'11111222,11111222,99999999' 
WAVCIS,ioos:station:WAVCIS:CSI09:1,2016-12-01T13:00:00Z,29.1015,-89.9782,0.0,12.07,34.0,,'11111222,11111222,99999999' 
WAVCIS,ioos:station:WAVCIS:CSI09:1,2016-12-01T14:00:00Z,29.1015,-89.9782,0.0,11.73,28.0,,'11111222,11111222,99999999' 
WAVCIS,ioos:station:WAVCIS:CSI09:1,2016-12-01T15:00:00Z,29.1015,-89.9782,0.0,10.88,32.0,,'11111222,11111222,99999999' 
WAVCIS,ioos:station:WAVCIS:CSI09:1,2016-12-01T16:00:00Z,29.1015,-89.9782,0.0,9.76,33.0,,'11111222,11111222,99999999' 
WAVCIS,ioos:station:WAVCIS:CSI09:1,2016-12-01T17:00:00Z,29.1015,-89.9782,0.0,8.83,40.0,,'11111222,11111222,99999999' 
WAVCIS,ioos:station:WAVCIS:CSI09:1,2016-12-01T18:00:00Z,29.1015,-89.9782,0.0,8.22,47.0,,'11111222,11111222,99999999' 
WAVCIS,ioos:station:WAVCIS:CSI09:1,2016-12-01T19:00:00Z,29.1015,-89.9782,0.0,6.439,46.0,,'11111222,11111222,99999999' 
WAVCIS,ioos:station:WAVCIS:CSI09:1,2016-12-01T20:00:00Z,29.1015,-89.9782,0.0,6.268,41.0,,'11111222,11111222,99999999' 
WAVCIS,ioos:station:WAVCIS:CSI09:1,2016-12-01T21:00:00Z,29.1015,-89.9782,0.0,6.123,43.0,,'11111222,11111222,99999999' 
WAVCIS,ioos:station:WAVCIS:CSI09:1,2016-12-01T22:00:00Z,29.1015,-89.9782,0.0,6.79,39.0,,'11111222,11111222,99999999' 
WAVCIS,ioos:station:WAVCIS:CSI09:1,2016-12-01T23:00:00Z,29.1015,-89.9782,0.0,6.893,43.0,,'11111222,11111222,99999999' 
WAVCIS,ioos:station:WAVCIS:CSI09:1,2016-12-02T00:00:00Z,29.1015,-89.9782,0.0,6.566,49.0,,'11111222,11111222,99999999' 
WAVCIS,ioos:station:WAVCIS:CSI09:1,2016-12-02T01:00:00Z,29.1015,-89.9782,0.0,6.496,46.0,,'11111222,11111222,99999999' 
WAVCIS,ioos:station:WAVCIS:CSI09:1,2016-12-02T02:00:00Z,29.1015,-89.9782,0.0,7.82,52.0,,'11111222,11111222,99999999' 
WAVCIS,ioos:station:WAVCIS:CSI09:1,2016-12-02T03:00:00Z,29.1015,-89.9782,0.0,8.64,48.0,,'11111222,11111222,99999999' 
WAVCIS,ioos:station:WAVCIS:CSI09:1,2016-12-02T04:00:00Z,29.1015,-89.9782,0.0,7.88,55.0,,'11111222,11111222,99999999' 
WAVCIS,ioos:station:WAVCIS:CSI09:1,2016-12-02T05:00:00Z,29.1015,-89.9782,0.0,7.66,71.0,,'11111222,11111222,99999999' 
WAVCIS,ioos:station:WAVCIS:CSI09:1,2016-12-02T06:00:00Z,29.1015,-89.9782,0.0,7.1,66.0,,'11111222,11111222,99999999' 
WAVCIS,ioos:station:WAVCIS:CSI09:1,2016-12-02T07:00:00Z,29.1015,-89.9782,0.0,7.38,55.0,,'11111222,11111222,99999999' 
WAVCIS,ioos:station:WAVCIS:CSI09:1,2016-12-02T08:00:00Z,29.1015,-89.9782,0.0,8.1,59.0,,'11111222,11111222,99999999' 
WAVCIS,ioos:station:WAVCIS:CSI09:1,2016-12-02T09:00:00Z,29.1015,-89.9782,0.0,8.71,58.0,,'11111222,11111222,99999999' 
WAVCIS,ioos:station:WAVCIS:CSI09:1,2016-12-02T10:00:00Z,29.1015,-89.9782,0.0,10.13,60.0,,'11111222,11111222,99999999' 
WAVCIS,ioos:station:WAVCIS:CSI09:1,2016-12-02T11:00:00Z,29.1015,-89.9782,0.0,10.72,58.0,,'11111222,11111222,99999999' 
WAVCIS,ioos:station:WAVCIS:CSI09:1,2016-12-02T12:00:00Z,29.1015,-89.9782,0.0,10.32,68.0,,'11111222,11111222,99999999' 
WAVCIS,ioos:station:WAVCIS:CSI09:1,2016-12-02T13:00:00Z,29.1015,-89.9782,0.0,11.3,72.0,,'11111222,11111222,99999999' 
WAVCIS,ioos:station:WAVCIS:CSI09:1,2016-12-02T14:00:00Z,29.1015,-89.9782,0.0,11.4,71.0,,'11111222,11111222,99999999' 
WAVCIS,ioos:station:WAVCIS:CSI09:1,2016-12-02T15:00:00Z,29.1015,-89.9782,0.0,11.34,74.0,,'11111222,11111222,99999999' 
WAVCIS,ioos:station:WAVCIS:CSI09:1,2016-12-02T16:00:00Z,29.1015,-89.9782,0.0,9.59,78.0,,'11111222,11111222,99999999' 
WAVCIS,ioos:station:WAVCIS:CSI09:1,2016-12-02T17:00:00Z,29.1015,-89.9782,0.0,9.63,77.0,,'11111222,11111222,99999999' 
WAVCIS,ioos:station:WAVCIS:CSI09:1,2016-12-02T18:00:00Z,29.1015,-89.9782,0.0,9.81,76.0,,'11111222,11111222,99999999' 
WAVCIS,ioos:station:WAVCIS:CSI09:1,2016-12-02T19:00:00Z,29.1015,-89.9782,0.0,10.62,72.0,,'11111222,11111222,99999999' 
WAVCIS,ioos:station:WAVCIS:CSI09:1,2016-12-02T20:00:00Z,29.1015,-89.9782,0.0,10.83,73.0,,'11111222,11111222,99999999' 
WAVCIS,ioos:station:WAVCIS:CSI09:1,2016-12-02T21:00:00Z,29.1015,-89.9782,0.0,10.59,76.0,,'11111222,11111222,99999999' 
WAVCIS,ioos:station:WAVCIS:CSI09:1,2016-12-02T22:00:00Z,29.1015,-89.9782,0.0,10.33,74.0,,'11111222,11111222,99999999' 
WAVCIS,ioos:station:WAVCIS:CSI09:1,2016-12-02T23:00:00Z,29.1015,-89.9782,0.0,10.59,78.0,,'11111222,11111222,99999999' 
WAVCIS,ioos:station:WAVCIS:CSI09:1,2016-12-03T00:00:00Z,29.1015,-89.9782,0.0,12.22,73.0,,'11111222,11111222,99999999' 
WAVCIS,ioos:station:WAVCIS:CSI09:1,2016-12-03T01:00:00Z,29.1015,-89.9782,0.0,12.32,74.0,,'11111222,11111222,99999999' 
WAVCIS,ioos:station:WAVCIS:CSI09:1,2016-12-03T02:00:00Z,29.1015,-89.9782,0.0,11.11,75.0,,'11111222,11111222,99999999' 
WAVCIS,ioos:station:WAVCIS:CSI09:1,2016-12-03T03:00:00Z,29.1015,-89.9782,0.0,11.64,76.0,,'11111222,11111222,99999999' 
WAVCIS,ioos:station:WAVCIS:CSI09:1,2016-12-03T04:00:00Z,29.1015,-89.9782,0.0,12.19,74.0,,'11111222,11111222,99999999' 
WAVCIS,ioos:station:WAVCIS:CSI09:1,2016-12-03T05:00:00Z,29.1015,-89.9782,0.0,11.22,77.0,,'11111222,11111222,99999999' 
WAVCIS,ioos:station:WAVCIS:CSI09:1,2016-12-03T06:00:00Z,29.1015,-89.9782,0.0,12.02,81.0,,'11111222,11111222,99999999' 
WAVCIS,ioos:station:WAVCIS:CSI09:1,2016-12-03T07:00:00Z,29.1015,-89.9782,0.0,12.82,83.0,,'11111222,11111222,99999999' 
WAVCIS,ioos:station:WAVCIS:CSI09:1,2016-12-03T08:00:00Z,29.1015,-89.9782,0.0,10.87,78.0,,'11111222,11111222,99999999' 
WAVCIS,ioos:station:WAVCIS:CSI09:1,2016-12-03T09:00:00Z,29.1015,-89.9782,0.0,11.2,84.0,,'11111222,11111222,99999999' 
WAVCIS,ioos:station:WAVCIS:CSI09:1,2016-12-03T10:00:00Z,29.1015,-89.9782,0.0,11.22,76.0,,'11111222,11111222,99999999' 
WAVCIS,ioos:station:WAVCIS:CSI09:1,2016-12-03T11:00:00Z,29.1015,-89.9782,0.0,9.51,96.0,,'11111222,11111222,99999999' 
WAVCIS,ioos:station:WAVCIS:CSI09:1,2016-12-03T12:00:00Z,29.1015,-89.9782,0.0,9.87,100.0,,'11111222,11111222,99999999' 
WAVCIS,ioos:station:WAVCIS:CSI09:1,2016-12-03T13:00:00Z,29.1015,-89.9782,0.0,11.59,112.0,,'11111222,11111222,99999999' 
WAVCIS,ioos:station:WAVCIS:CSI09:1,2016-12-03T14:00:00Z,29.1015,-89.9782,0.0,9.89,109.0,,'11111222,11111222,99999999' 
WAVCIS,ioos:station:WAVCIS:CSI09:1,2016-12-03T15:00:00Z,29.1015,-89.9782,0.0,9.47,108.0,,'11111222,11111222,99999999' 
WAVCIS,ioos:station:WAVCIS:CSI09:1,2016-12-03T16:00:00Z,29.1015,-89.9782,0.0,9.33,117.0,,'11111222,11111222,99999999' 
WAVCIS,ioos:station:WAVCIS:CSI09:1,2016-12-03T17:00:00Z,29.1015,-89.9782,0.0,9.18,116.0,,'11111222,11111222,99999999' 
WAVCIS,ioos:station:WAVCIS:CSI09:1,2016-12-03T18:00:00Z,29.1015,-89.9782,0.0,8.98,117.0,,'11111222,11111222,99999999' 
WAVCIS,ioos:station:WAVCIS:CSI09:1,2016-12-03T19:00:00Z,29.1015,-89.9782,0.0,9.53,122.0,,'11111222,11111222,99999999' 
WAVCIS,ioos:station:WAVCIS:CSI09:1,2016-12-03T20:00:00Z,29.1015,-89.9782,0.0,10.13,110.0,,'11111222,11111222,99999999' 
WAVCIS,ioos:station:WAVCIS:CSI09:1,2016-12-03T21:00:00Z,29.1015,-89.9782,0.0,9.93,113.0,,'11111222,11111222,99999999' 
WAVCIS,ioos:station:WAVCIS:CSI09:1,2016-12-03T22:00:00Z,29.1015,-89.9782,0.0,8.92,108.0,,'11111222,11111222,99999999' 
WAVCIS,ioos:station:WAVCIS:CSI09:1,2016-12-03T23:00:00Z,29.1015,-89.9782,0.0,9.42,115.0,,'11111222,11111222,99999999' 
WAVCIS,ioos:station:WAVCIS:CSI09:1,2016-12-04T00:00:00Z,29.1015,-89.9782,0.0,9.15,114.0,,'11111222,11111222,99999999' 
WAVCIS,ioos:station:WAVCIS:CSI09:1,2016-12-04T01:00:00Z,29.1015,-89.9782,0.0,9.31,109.0,,'11111222,11111222,99999999' 
WAVCIS,ioos:station:WAVCIS:CSI09:1,2016-12-04T02:00:00Z,29.1015,-89.9782,0.0,8.81,105.0,,'11111222,11111222,99999999' 
WAVCIS,ioos:station:WAVCIS:CSI09:1,2016-12-04T03:00:00Z,29.1015,-89.9782,0.0,10.7,118.0,,'11111222,11111222,99999999' 
WAVCIS,ioos:station:WAVCIS:CSI09:1,2016-12-04T04:00:00Z,29.1015,-89.9782,0.0,6.958,94.0,,'11111222,11111222,99999999' 
WAVCIS,ioos:station:WAVCIS:CSI09:1,2016-12-04T05:00:00Z,29.1015,-89.9782,0.0,9.19,134.0,,'11111222,11111222,99999999' 
WAVCIS,ioos:station:WAVCIS:CSI09:1,2016-12-04T06:00:00Z,29.1015,-89.9782,0.0,10.99,140.0,,'11111222,11111222,99999999' 
WAVCIS,ioos:station:WAVCIS:CSI09:1,2016-12-04T07:00:00Z,29.1015,-89.9782,0.0,9.02,144.0,,'11111222,11111222,99999999' 
WAVCIS,ioos:station:WAVCIS:CSI09:1,2016-12-04T08:00:00Z,29.1015,-89.9782,0.0,8.41,170.0,,'11111222,11111222,99999999' 
WAVCIS,ioos:station:WAVCIS:CSI09:1,2016-12-04T09:00:00Z,29.1015,-89.9782,0.0,6.611,182.0,,'11111222,11111222,99999999' 
WAVCIS,ioos:station:WAVCIS:CSI09:1,2016-12-04T10:00:00Z,29.1015,-89.9782,0.0,10.02,180.0,,'11111222,11111222,99999999' 
WAVCIS,ioos:station:WAVCIS:CSI09:1,2016-12-04T11:00:00Z,29.1015,-89.9782,0.0,5.853,204.0,,'11111222,11111222,99999999' 
WAVCIS,ioos:station:WAVCIS:CSI09:1,2016-12-04T12:00:00Z,29.1015,-89.9782,0.0,5.422,192.0,,'11111222,11111222,99999999' 
WAVCIS,ioos:station:WAVCIS:CSI09:1,2016-12-04T13:00:00Z,29.1015,-89.9782,0.0,10.44,177.0,,'11111222,11111222,99999999' 
WAVCIS,ioos:station:WAVCIS:CSI09:1,2016-12-04T14:00:00Z,29.1015,-89.9782,0.0,9.42,179.0,,'11111222,11111222,99999999' 
WAVCIS,ioos:station:WAVCIS:CSI09:1,2016-12-04T15:00:00Z,29.1015,-89.9782,0.0,7.98,177.0,,'11111222,11111222,99999999' 
WAVCIS,ioos:station:WAVCIS:CSI09:1,2016-12-04T16:00:00Z,29.1015,-89.9782,0.0,6.124,176.0,,'11111222,11111222,99999999' 
WAVCIS,ioos:station:WAVCIS:CSI09:1,2016-12-04T17:00:00Z,29.1015,-89.9782,0.0,1.631,205.0,,'11111222,11111222,99999999' 
WAVCIS,ioos:station:WAVCIS:CSI09:1,2016-12-04T18:00:00Z,29.1015,-89.9782,0.0,5.258,213.0,,'11111222,11111222,99999999' 
WAVCIS,ioos:station:WAVCIS:CSI09:1,2016-12-04T19:00:00Z,29.1015,-89.9782,0.0,5.223,263.0,,'11111222,11111222,99999999' 
WAVCIS,ioos:station:WAVCIS:CSI09:1,2016-12-04T20:00:00Z,29.1015,-89.9782,0.0,1.161,281.0,,'11111222,11111222,99999999' 
WAVCIS,ioos:station:WAVCIS:CSI09:1,2016-12-04T21:00:00Z,29.1015,-89.9782,0.0,3.103,57.0,,'11111222,11111222,99999999' 
WAVCIS,ioos:station:WAVCIS:CSI09:1,2016-12-04T22:00:00Z,29.1015,-89.9782,0.0,1.984,25.0,,'11111222,11111222,99999999' 
WAVCIS,ioos:station:WAVCIS:CSI09:1,2016-12-04T23:00:00Z,29.1015,-89.9782,0.0,10.2,356.0,,'11111222,11111222,99999999' 
WAVCIS,ioos:station:WAVCIS:CSI09:1,2016-12-05T00:00:00Z,29.1015,-89.9782,0.0,11.67,358.0,,'11111222,11111222,99999999' 
WAVCIS,ioos:station:WAVCIS:CSI09:1,2016-12-05T01:00:00Z,29.1015,-89.9782,0.0,11.96,8.0,,'11111222,11111222,99999999' 
WAVCIS,ioos:station:WAVCIS:CSI09:1,2016-12-05T02:00:00Z,29.1015,-89.9782,0.0,9.88,18.0,,'11111222,11111222,99999999' 
WAVCIS,ioos:station:WAVCIS:CSI09:1,2016-12-05T03:00:00Z,29.1015,-89.9782,0.0,10.92,9.0,,'11111222,11111222,99999999' 
WAVCIS,ioos:station:WAVCIS:CSI09:1,2016-12-05T04:00:00Z,29.1015,-89.9782,0.0,9.42,46.0,,'11111222,11111222,99999999' 
WAVCIS,ioos:station:WAVCIS:CSI09:1,2016-12-05T05:00:00Z,29.1015,-89.9782,0.0,8.5,68.0,,'11111222,11111222,99999999' 
WAVCIS,ioos:station:WAVCIS:CSI09:1,2016-12-05T06:00:00Z,29.1015,-89.9782,0.0,7.99,83.0,,'11111222,11111222,99999999' 
WAVCIS,ioos:station:WAVCIS:CSI09:1,2016-12-05T07:00:00Z,29.1015,-89.9782,0.0,8.39,102.0,,'11111222,11111222,99999999' 
WAVCIS,ioos:station:WAVCIS:CSI09:1,2016-12-05T08:00:00Z,29.1015,-89.9782,0.0,10.71,116.0,,'11111222,11111222,99999999' 
WAVCIS,ioos:station:WAVCIS:CSI09:1,2016-12-05T09:00:00Z,29.1015,-89.9782,0.0,8.06,125.0,,'11111222,11111222,99999999' 
WAVCIS,ioos:station:WAVCIS:CSI09:1,2016-12-05T10:00:00Z,29.1015,-89.9782,0.0,8.83,128.0,,'11111222,11111222,99999999' 
WAVCIS,ioos:station:WAVCIS:CSI09:1,2016-12-05T11:00:00Z,29.1015,-89.9782,0.0,6.728,127.0,,'11111222,11111222,99999999' 
WAVCIS,ioos:station:WAVCIS:CSI09:1,2016-12-05T12:00:00Z,29.1015,-89.9782,0.0,5.888,31.0,,'11111222,11111222,99999999' 
WAVCIS,ioos:station:WAVCIS:CSI09:1,2016-12-05T13:00:00Z,29.1015,-89.9782,0.0,7.54,38.0,,'11111222,11111222,99999999' 
WAVCIS,ioos:station:WAVCIS:CSI09:1,2016-12-05T14:00:00Z,29.1015,-89.9782,0.0,8.7,49.0,,'11111222,11111222,99999999' 
WAVCIS,ioos:station:WAVCIS:CSI09:1,2016-12-05T15:00:00Z,29.1015,-89.9782,0.0,8.94,51.0,,'11111222,11111222,99999999' 
WAVCIS,ioos:station:WAVCIS:CSI09:1,2016-12-05T16:00:00Z,29.1015,-89.9782,0.0,8.74,58.0,,'11111222,11111222,99999999' 
WAVCIS,ioos:station:WAVCIS:CSI09:1,2016-12-05T17:00:00Z,29.1015,-89.9782,0.0,5.765,68.0,,'11111222,11111222,99999999' 
WAVCIS,ioos:station:WAVCIS:CSI09:1,2016-12-05T18:00:00Z,29.1015,-89.9782,0.0,8.06,181.0,,'11111222,11111222,99999999' 
WAVCIS,ioos:station:WAVCIS:CSI09:1,2016-12-05T19:00:00Z,29.1015,-89.9782,0.0,5.297,198.0,,'11111222,11111222,99999999' 
WAVCIS,ioos:station:WAVCIS:CSI09:1,2016-12-05T20:00:00Z,29.1015,-89.9782,0.0,6.948,209.0,,'11111222,11111222,99999999' 
WAVCIS,ioos:station:WAVCIS:CSI09:1,2016-12-05T21:00:00Z,29.1015,-89.9782,0.0,7.85,327.0,,'11111222,11111222,99999999' 
WAVCIS,ioos:station:WAVCIS:CSI09:1,2016-12-05T22:00:00Z,29.1015,-89.9782,0.0,6.466,30.0,,'11111222,11111222,99999999' 
WAVCIS,ioos:station:WAVCIS:CSI09:1,2016-12-05T23:00:00Z,29.1015,-89.9782,0.0,5.788,48.0,,'11111222,11111222,99999999' 
WAVCIS,ioos:station:WAVCIS:CSI09:1,2016-12-06T00:00:00Z,29.1015,-89.9782,0.0,6.879,68.0,,'11111222,11111222,99999999' 
WAVCIS,ioos:station:WAVCIS:CSI09:1,2016-12-06T01:00:00Z,29.1015,-89.9782,0.0,8.32,73.0,,'11111222,11111222,99999999' 
WAVCIS,ioos:station:WAVCIS:CSI09:1,2016-12-06T02:00:00Z,29.1015,-89.9782,0.0,8.57,83.0,,'11111222,11111222,99999999' 
WAVCIS,ioos:station:WAVCIS:CSI09:1,2016-12-06T03:00:00Z,29.1015,-89.9782,0.0,5.336,236.0,,'11111222,11111222,99999999' 
WAVCIS,ioos:station:WAVCIS:CSI09:1,2016-12-06T04:00:00Z,29.1015,-89.9782,0.0,6.415,229.0,,'11111222,11111222,99999999' 
WAVCIS,ioos:station:WAVCIS:CSI09:1,2016-12-06T05:00:00Z,29.1015,-89.9782,0.0,8.39,233.0,,'11111222,11111222,99999999' 
WAVCIS,ioos:station:WAVCIS:CSI09:1,2016-12-06T06:00:00Z,29.1015,-89.9782,0.0,15.62,259.0,,'11111222,11111222,99999999' 
WAVCIS,ioos:station:WAVCIS:CSI09:1,2016-12-06T07:00:00Z,29.1015,-89.9782,0.0,14.13,268.0,,'11111222,11111222,99999999' 
WAVCIS,ioos:station:WAVCIS:CSI09:1,2016-12-06T08:00:00Z,29.1015,-89.9782,0.0,14.06,267.0,,'11111222,11111222,99999999' 
WAVCIS,ioos:station:WAVCIS:CSI09:1,2016-12-06T09:00:00Z,29.1015,-89.9782,0.0,14.48,267.0,,'11111222,11111222,99999999' 
WAVCIS,ioos:station:WAVCIS:CSI09:1,2016-12-06T10:00:00Z,29.1015,-89.9782,0.0,13.6,279.0,,'11111222,11111222,99999999' 
WAVCIS,ioos:station:WAVCIS:CSI09:1,2016-12-06T11:00:00Z,29.1015,-89.9782,0.0,12.78,273.0,,'11111222,11111222,99999999' 
WAVCIS,ioos:station:WAVCIS:CSI09:1,2016-12-06T12:00:00Z,29.1015,-89.9782,0.0,13.08,282.0,,'11111222,11111222,99999999' 
WAVCIS,ioos:station:WAVCIS:CSI09:1,2016-12-06T13:00:00Z,29.1015,-89.9782,0.0,12.07,277.0,,'11111222,11111222,99999999' 
WAVCIS,ioos:station:WAVCIS:CSI09:1,2016-12-06T14:00:00Z,29.1015,-89.9782,0.0,12.62,280.0,,'11111222,11111222,99999999' 
WAVCIS,ioos:station:WAVCIS:CSI09:1,2016-12-06T15:00:00Z,29.1015,-89.9782,0.0,10.96,282.0,,'11111222,11111222,99999999' 
WAVCIS,ioos:station:WAVCIS:CSI09:1,2016-12-06T16:00:00Z,29.1015,-89.9782,0.0,9.66,291.0,,'11111222,11111222,99999999' 
WAVCIS,ioos:station:WAVCIS:CSI09:1,2016-12-06T17:00:00Z,29.1015,-89.9782,0.0,7.87,280.0,,'11111222,11111222,99999999' 
WAVCIS,ioos:station:WAVCIS:CSI09:1,2016-12-06T18:00:00Z,29.1015,-89.9782,0.0,8.6,282.0,,'11111222,11111222,99999999' 
WAVCIS,ioos:station:WAVCIS:CSI09:1,2016-12-06T19:00:00Z,29.1015,-89.9782,0.0,6.068,286.0,,'11111222,11111222,99999999' 
WAVCIS,ioos:station:WAVCIS:CSI09:1,2016-12-06T20:00:00Z,29.1015,-89.9782,0.0,5.677,285.0,,'11111222,11111222,99999999' 
WAVCIS,ioos:station:WAVCIS:CSI09:1,2016-12-06T21:00:00Z,29.1015,-89.9782,0.0,4.433,290.0,,'11111222,11111222,99999999' 
WAVCIS,ioos:station:WAVCIS:CSI09:1,2016-12-06T22:00:00Z,29.1015,-89.9782,0.0,4.038,291.0,,'11111222,11111222,99999999' 
WAVCIS,ioos:station:WAVCIS:CSI09:1,2016-12-06T23:00:00Z,29.1015,-89.9782,0.0,2.449,291.0,,'11111222,11111222,99999999' 
WAVCIS,ioos:station:WAVCIS:CSI09:1,2016-12-07T00:00:00Z,29.1015,-89.9782,0.0,2.799,279.0,,'11111222,11111222,99999999' 
WAVCIS,ioos:station:WAVCIS:CSI09:1,2016-12-07T01:00:00Z,29.1015,-89.9782,0.0,2.491,284.0,,'11111222,11111222,99999999' 
WAVCIS,ioos:station:WAVCIS:CSI09:1,2016-12-07T02:00:00Z,29.1015,-89.9782,0.0,3.519,359.0,,'11111222,11111222,99999999' 
WAVCIS,ioos:station:WAVCIS:CSI09:1,2016-12-07T03:00:00Z,29.1015,-89.9782,0.0,6.26,33.0,,'11111222,11111222,99999999' 
WAVCIS,ioos:station:WAVCIS:CSI09:1,2016-12-07T04:00:00Z,29.1015,-89.9782,0.0,5.759,40.0,,'11111222,11111222,99999999' 
WAVCIS,ioos:station:WAVCIS:CSI09:1,2016-12-07T05:00:00Z,29.1015,-89.9782,0.0,4.945,50.0,,'11111222,11111222,99999999' 
WAVCIS,ioos:station:WAVCIS:CSI09:1,2016-12-07T06:00:00Z,29.1015,-89.9782,0.0,5.289,48.0,,'11111222,11111222,99999999' 
WAVCIS,ioos:station:WAVCIS:CSI09:1,2016-12-07T07:00:00Z,29.1015,-89.9782,0.0,4.58,61.0,,'11111222,11111222,99999999' 
WAVCIS,ioos:station:WAVCIS:CSI09:1,2016-12-07T08:00:00Z,29.1015,-89.9782,0.0,3.74,63.0,,'11111222,11111222,99999999' 
WAVCIS,ioos:station:WAVCIS:CSI09:1,2016-12-07T09:00:00Z,29.1015,-89.9782,0.0,3.148,54.0,,'11111222,11111222,99999999' 
WAVCIS,ioos:station:WAVCIS:CSI09:1,2016-12-07T10:00:00Z,29.1015,-89.9782,0.0,4.823,32.0,,'11111222,11111222,99999999' 
WAVCIS,ioos:station:WAVCIS:CSI09:1,2016-12-07T11:00:00Z,29.1015,-89.9782,0.0,4.99,40.0,,'11111222,11111222,99999999' 
WAVCIS,ioos:station:WAVCIS:CSI09:1,2016-12-07T12:00:00Z,29.1015,-89.9782,0.0,5.061,65.0,,'11111222,11111222,99999999' 
WAVCIS,ioos:station:WAVCIS:CSI09:1,2016-12-07T13:00:00Z,29.1015,-89.9782,0.0,5.243,70.0,,'11111222,11111222,99999999' 
WAVCIS,ioos:station:WAVCIS:CSI09:1,2016-12-07T14:00:00Z,29.1015,-89.9782,0.0,5.091,66.0,,'11111222,11111222,99999999' 
WAVCIS,ioos:station:WAVCIS:CSI09:1,2016-12-07T15:00:00Z,29.1015,-89.9782,0.0,5.493,72.0,,'11111222,11111222,99999999' 
WAVCIS,ioos:station:WAVCIS:CSI09:1,2016-12-07T16:00:00Z,29.1015,-89.9782,0.0,4.946,76.0,,'11111222,11111222,99999999' 
WAVCIS,ioos:station:WAVCIS:CSI09:1,2016-12-07T17:00:00Z,29.1015,-89.9782,0.0,5.169,65.0,,'11111222,11111222,99999999' 
WAVCIS,ioos:station:WAVCIS:CSI09:1,2016-12-07T18:00:00Z,29.1015,-89.9782,0.0,4.675,70.0,,'11111222,11111222,99999999' 
WAVCIS,ioos:station:WAVCIS:CSI09:1,2016-12-07T19:00:00Z,29.1015,-89.9782,0.0,4.495,72.0,,'11111222,11111222,99999999' 
WAVCIS,ioos:station:WAVCIS:CSI09:1,2016-12-07T20:00:00Z,29.1015,-89.9782,0.0,4.886,73.0,,'11111222,11111222,99999999' 
WAVCIS,ioos:station:WAVCIS:CSI09:1,2016-12-07T21:00:00Z,29.1015,-89.9782,0.0,5.249,78.0,,'11111222,11111222,99999999' 
WAVCIS,ioos:station:WAVCIS:CSI09:1,2016-12-07T22:00:00Z,29.1015,-89.9782,0.0,5.371,86.0,,'11111222,11111222,99999999' 
WAVCIS,ioos:station:WAVCIS:CSI09:1,2016-12-07T23:00:00Z,29.1015,-89.9782,0.0,5.458,79.0,,'11111222,11111222,99999999' 
WAVCIS,ioos:station:WAVCIS:CSI09:1,2016-12-08T00:00:00Z,29.1015,-89.9782,0.0,5.929,73.0,,'11111222,11111222,99999999' 
WAVCIS,ioos:station:WAVCIS:CSI09:1,2016-12-08T01:00:00Z,29.1015,-89.9782,0.0,6.601,67.0,,'11111222,11111222,99999999' 
WAVCIS,ioos:station:WAVCIS:CSI09:1,2016-12-08T02:00:00Z,29.1015,-89.9782,0.0,7.68,51.0,,'11111222,11111222,99999999' 
WAVCIS,ioos:station:WAVCIS:CSI09:1,2016-12-08T03:00:00Z,29.1015,-89.9782,0.0,7.36,63.0,,'11111222,11111222,99999999' 
WAVCIS,ioos:station:WAVCIS:CSI09:1,2016-12-08T04:00:00Z,29.1015,-89.9782,0.0,7.06,51.0,,'11111222,11111222,99999999' 
WAVCIS,ioos:station:WAVCIS:CSI09:1,2016-12-08T05:00:00Z,29.1015,-89.9782,0.0,6.917,47.0,,'11111222,11111222,99999999' 
WAVCIS,ioos:station:WAVCIS:CSI09:1,2016-12-08T06:00:00Z,29.1015,-89.9782,0.0,7.62,37.0,,'11111222,11111222,99999999' 
WAVCIS,ioos:station:WAVCIS:CSI09:1,2016-12-08T07:00:00Z,29.1015,-89.9782,0.0,7.6,30.0,,'11111222,11111222,99999999' 
WAVCIS,ioos:station:WAVCIS:CSI09:1,2016-12-08T08:00:00Z,29.1015,-89.9782,0.0,8.74,25.0,,'11111222,11111222,99999999' 
WAVCIS,ioos:station:WAVCIS:CSI09:1,2016-12-08T09:00:00Z,29.1015,-89.9782,0.0,9.34,43.0,,'11111222,11111222,99999999' 
WAVCIS,ioos:station:WAVCIS:CSI09:1,2016-12-08T10:00:00Z,29.1015,-89.9782,0.0,9.72,61.0,,'11111222,11111222,99999999' 
WAVCIS,ioos:station:WAVCIS:CSI09:1,2016-12-08T11:00:00Z,29.1015,-89.9782,0.0,9.19,74.0,,'11111222,11111222,99999999' 
WAVCIS,ioos:station:WAVCIS:CSI09:1,2016-12-08T12:00:00Z,29.1015,-89.9782,0.0,10.3,23.0,,'11111222,11111222,99999999' 
WAVCIS,ioos:station:WAVCIS:CSI09:1,2016-12-08T13:00:00Z,29.1015,-89.9782,0.0,12.13,26.0,,'11111222,11111222,99999999' 
WAVCIS,ioos:station:WAVCIS:CSI09:1,2016-12-08T14:00:00Z,29.1015,-89.9782,0.0,12.66,25.0,,'11111222,11111222,99999999' 
WAVCIS,ioos:station:WAVCIS:CSI09:1,2016-12-08T15:00:00Z,29.1015,-89.9782,0.0,13.0,35.0,,'11111222,11111222,99999999' 
WAVCIS,ioos:station:WAVCIS:CSI09:1,2016-12-08T16:00:00Z,29.1015,-89.9782,0.0,14.05,26.0,,'11111222,11111222,99999999' 
WAVCIS,ioos:station:WAVCIS:CSI09:1,2016-12-08T17:00:00Z,29.1015,-89.9782,0.0,15.25,30.0,,'11111222,11111222,99999999' 
WAVCIS,ioos:station:WAVCIS:CSI09:1,2016-12-08T18:00:00Z,29.1015,-89.9782,0.0,14.46,27.0,,'11111222,11111222,99999999' 
WAVCIS,ioos:station:WAVCIS:CSI09:1,2016-12-08T19:00:00Z,29.1015,-89.9782,0.0,15.11,27.0,,'11111222,11111222,99999999' 
WAVCIS,ioos:station:WAVCIS:CSI09:1,2016-12-08T20:00:00Z,29.1015,-89.9782,0.0,13.42,31.0,,'11111222,11111222,99999999' 
WAVCIS,ioos:station:WAVCIS:CSI09:1,2016-12-08T21:00:00Z,29.1015,-89.9782,0.0,12.98,25.0,,'11111222,11111222,99999999' 
WAVCIS,ioos:station:WAVCIS:CSI09:1,2016-12-08T22:00:00Z,29.1015,-89.9782,0.0,12.23,29.0,,'11111222,11111222,99999999' 
WAVCIS,ioos:station:WAVCIS:CSI09:1,2016-12-08T23:00:00Z,29.1015,-89.9782,0.0,13.47,22.0,,'11111222,11111222,99999999' 
WAVCIS,ioos:station:WAVCIS:CSI09:1,2016-12-09T00:00:00Z,29.1015,-89.9782,0.0,14.93,24.0,,'11111222,11111222,99999999' 
WAVCIS,ioos:station:WAVCIS:CSI09:1,2016-12-09T01:00:00Z,29.1015,-89.9782,0.0,16.53,25.0,,'11111222,11111222,99999999' 
WAVCIS,ioos:station:WAVCIS:CSI09:1,2016-12-09T02:00:00Z,29.1015,-89.9782,0.0,14.35,26.0,,'11111222,11111222,99999999' 
WAVCIS,ioos:station:WAVCIS:CSI09:1,2016-12-09T03:00:00Z,29.1015,-89.9782,0.0,14.92,28.0,,'11111222,11111222,99999999' 
WAVCIS,ioos:station:WAVCIS:CSI09:1,2016-12-09T04:00:00Z,29.1015,-89.9782,0.0,15.29,35.0,,'11111222,11111222,99999999' 
WAVCIS,ioos:station:WAVCIS:CSI09:1,2016-12-09T05:00:00Z,29.1015,-89.9782,0.0,15.72,21.0,,'11111222,11111222,99999999' 
WAVCIS,ioos:station:WAVCIS:CSI09:1,2016-12-09T06:00:00Z,29.1015,-89.9782,0.0,14.69,21.0,,'11111222,11111222,99999999' 
WAVCIS,ioos:station:WAVCIS:CSI09:1,2016-12-09T07:00:00Z,29.1015,-89.9782,0.0,15.78,25.0,,'11111222,11111222,99999999' 